Regional Weather Roundup
Issued by NWS

Home | Current Version | Previous Version | Text Only | Print | Product List | Glossary On
Versions: 1 2 3 4 5 6 7 8 9 10 11 12 13 14 15 16 17 18 19 20 21 22 23 24 25 26 27 28 29 30 31 32 33 34 35 36 37 38 39 40 41 42 43 44 45 46 47 48 49 50
000
ASCA44 KEWX 180720
RWRMX

LATIN AMERICA AND CARIBBEAN REGIONAL WEATHER ROUNDUP
NATIONAL WEATHER SERVICE AUSTIN/SAN ANTONIO TX
100 AM CST MON DEC 18 2017

NOTE: "FAIR" INDICATED FEW OR NO CLOUDS BELOW 12,000 FEET WITH NO
SIGNIFICANT WEATHER AND/OR OBSTRUCTIONS TO VISIBILITY.

BAJA CALIFORNIA

CITY           SKY/WX    TMP DP  RH WIND       PRES   REMARKS
MEXICALI       CLEAR     54  21  28 W8        30.05S
S.J. DEL CABO  PTCLDY    66  55  68 N3        30.00
TIJUANA        CLEAR     55  16  21 CALM      30.06R

NORTHWESTERN MEXICO

CITY           SKY/WX    TMP DP  RH WIND       PRES   REMARKS
HERMOSILLO     CLEAR     55  54  94 N3        30.02R

NORTHEASTERN MEXICO

CITY           SKY/WX    TMP DP  RH WIND       PRES   REMARKS
MONCLOVA         N/A    N/A N/A N/A MISG        N/A
MONTERREY      FOG       52  50  93 SE5       30.08S VSB 1/2
REYNOSA          N/A    N/A N/A N/A MISG        N/A
CD. VICTORIA     N/A    N/A N/A N/A MISG        N/A

WESTERN MEXICO

CITY           SKY/WX    TMP DP  RH WIND       PRES   REMARKS
AGUASCALIENTES   N/A    N/A N/A N/A MISG        N/A
COLIMA           N/A    N/A N/A N/A MISG        N/A
GUADALAJARA    MOCLDY    55  54  94 W3        30.25S
MAZATLAN       MOCLDY    66  64  94 NE6       30.00S
P. VALLARTA    CLOUDY    72  72 100 NE5       29.97F
URUAPAN          N/A    N/A N/A N/A MISG        N/A
ZACATECAS      CLEAR     48  45  87 SW7       30.32R WCI  45

CENTRAL MEXICO

CITY           SKY/WX    TMP DP  RH WIND       PRES   REMARKS
CUERNAVACA       N/A    N/A N/A N/A MISG        N/A
MEXICO CITY    MOCLDY    57  41  54 NW5       30.35S
MORELIA        MOCLDY    50  43  76 CALM      30.27F
POZA RICA        N/A    N/A N/A N/A MISG        N/A
S. LUIS POTOSI MOCLDY    54  43  66 CALM      30.28R
TOLUCA         CLEAR     43  39  87 CALM      30.39F

SOUTHERN MEXICO

CITY           SKY/WX    TMP DP  RH WIND       PRES   REMARKS
ACAPULCO       CLEAR     77  70  78 NW3       29.90S
B. DE HUATULCO   N/A    N/A N/A N/A MISG        N/A
P. ESCONDIDO     N/A    N/A N/A N/A MISG        N/A
VERACRUZ       PTCLDY    68  66  94 W2        30.05S

YUCATAN PENINSULA

CITY           SKY/WX    TMP DP  RH WIND       PRES   REMARKS
CAMPECHE       PTCLDY    75  73  94 E12       30.02S
CANCUN         PTCLDY    79  73  83 E9        30.09
CHETUMAL         N/A    N/A N/A N/A MISG        N/A
CD. DEL CARMEN   N/A    N/A N/A N/A MISG        N/A
COZUMEL        PTCLDY    75  73  94 E6        30.06F
MERIDA         CLEAR     75  72  88 E7        30.07F
MINATITLAN       N/A    N/A N/A N/A MISG        N/A
TAPACHULA        N/A    N/A N/A N/A MISG        N/A

CENTRAL AMERICA

CITY           SKY/WX    TMP DP  RH WIND       PRES   REMARKS

CARIBBEAN

CITY           SKY/WX    TMP DP  RH WIND       PRES   REMARKS
CURACAO        PTCLDY    81  75  83 E14       29.92S
NASSAU         PTCLDY    73  72  94 CALM      30.21S
SAN JUAN       PTCLDY    79  73  83 NE15      30.04F
SANTO DOMINGO  PTCLDY    73  70  88 N5        30.06S
ST. CROIX      LGT RAIN  75  73  94 NE10      30.02
ST. THOMAS     PTCLDY    79  73  83 NE16G24   30.02F

$$




USA.gov is the U.S. government's official web portal to all federal, state and local government web resources and services.